Showing default

CHUBUSAT 1, 40300

Orbit data source: Space-Track

CHUBUSAT 1, 40300 is a payload satellite owned by Nagoya (JP) in SSO that was launched on Thu, 06 Nov 2014 UTC via a DNEPR launch vehicle from the Orenburg, Russia (OREN). Payloads include a variety of satellites, spacecraft, and rockets equipped with specific instruments for various scientific and technological missions. These include communications satellites like Starlink; space stations such as the ISS; scientific satellites like the Hubble; Earth observation satellites from companies like Planet Labs, Umbra, and HawkEye 360; GPS; miniature CubeSats for education and research; and military/defense satellites.

Not visible in the next 10 days
CHUBUSAT 1 details
Identifier
40300, 2014-070C
Orbit
SSO
Last TLE update10 hours ago
Origin
Flag of JPNagoya (JP / JPN)
ManufacturerNagoya
MissionNon-operational Amateur Imaging
Bus & MotorUnknown
Mass~50 kg wet, ~50 kg dry
Launch date (UTC)
2014-11-06 (10 years ago)
Launch vehicle
DNEPR
Launch site
Orenburg, Russia (OREN)
Object type
Payload
Rocket body
Debris
Shape & HBRBox, 0.58 m
Radar Cross Section0.458 m², Medium (>0.1 m² and < 1m²)

Expand to show TLE details & history

TLE from 10 hours ago
0 CHUBUSAT 1
1 40300U 14070C   24361.04958718  .00428590  76378-4  10483-2 0  9998
2 40300  97.0446  42.5814 0003742  54.0298 306.1326 15.96146316564689
Epoch: 2024-12-26T01:11Z
Definitive object data (Epoch: 2024-12-26T01:11:24.332Z)
Latitude0.00002°
Longitude-70.30454°
Altitude286.855 km
Speed7.736 km/s
True Right ascension02h 50m 19s
True Declination0° 00' 00"
Sunlit
Object was in full shadow at TLE epoch
Visualization TLE readout
Latitude-10.48732°
Longitude-68.54372°
Altitude287.992 km
Speed7.735 km/s
Apparent Right ascension01h 18m 21s
Apparent Declination-27° 47' 37"
Sunlit
Object is in full shadow
Visualization observer readout
Local Sidereal Time11:02:02
Azimuth282.79° WNW
Elevation-59.45°
Doppler factor1
Orbital elements
Apogee altitude284.464 km
Perigee altitude279.48 km
Semi-major axis6,660.109 km
Eccentricity0.0003742
Inclination97.0446°
RAAN42.5814°
Arg. of periapsis54.0298°
True anomaly306.09796°
Mean anomaly306.1326°
Eccentric anomaly306.11528°
Mean motion3.9932 °/min
BSTAR0.0010483
Orbital period90.15 mins
Loading maneuver chart data...
Loading historical data...
Loading historical data...
Loading historical data...
Loading historical data...
Loading historical data...
Loading historical data...
Loading historical data...

CHUBUSAT 1 Visibility forecast

Observer location: undefined°, undefined

CHUBUSAT 1 is not visible in the next 10 days
Span
Click to sort rows by Start time (UTC) header in descending order
Start Az.
Max El. time (UTC)
Max El. Az.
Max El.
End time (UTC)
End Az.
|